This is the latest recevied weather packets stored in our database for station/object KD0JCP-10. If no packets are shown the sender has not sent any weather packets the latest 10 day(s).
| Time | Temp. | Humidity | Pressure | Rain* | Wind** | Luminosity | Snow |
|---|---|---|---|---|---|---|---|
| 1777485090 | 12.78° C | 54% | 1023.7 hPa | 0 mm | - | - | - |
| 1777484790 | 12.78° C | 54% | 1024 hPa | 0 mm | - | - | - |
| 1777484490 | 12.22° C | 54% | 1024.1 hPa | 0 mm | - | - | - |
| 1777484191 | 12.22° C | 54% | 1024.1 hPa | 0 mm | - | - | - |
| 1777483890 | 12.78° C | 54% | 1024.2 hPa | 0 mm | - | - | - |
| 1777483591 | 12.22° C | 54% | 1024.3 hPa | 0 mm | - | - | - |
| 1777483290 | 12.22° C | 56% | 1024.5 hPa | 0 mm | - | - | - |
| 1777482990 | 12.22° C | 57% | 1024.6 hPa | 0 mm | - | - | - |
| 1777482691 | 12.22° C | 57% | 1024.6 hPa | 0 mm | - | - | - |
| 1777482391 | 12.22° C | 57% | 1024.7 hPa | 0 mm | - | - | - |
| 1777482090 | 12.22° C | 55% | 1024.8 hPa | 0 mm | - | - | - |
| 1777481790 | 12.22° C | 57% | 1024.8 hPa | 0 mm | - | - | - |
| 1777481491 | 11.67° C | 56% | 1024.9 hPa | 0 mm | - | - | - |
| 1777481191 | 12.22° C | 56% | 1024.8 hPa | 0 mm | - | - | - |
| 1777480891 | 12.22° C | 58% | 1024.9 hPa | 0 mm | - | - | - |
| 1777480591 | 12.22° C | 56% | 1024.8 hPa | 0 mm | - | - | - |
| 1777480291 | 12.22° C | 59% | 1024.7 hPa | 0 mm | - | - | - |
| 1777479991 | 12.22° C | 59% | 1024.8 hPa | 0 mm | - | - | - |
| 1777479691 | 11.67° C | 62% | 1024.7 hPa | 0 mm | - | - | - |
| 1777479391 | 11.67° C | 62% | 1024.8 hPa | 0 mm | - | - | - |
| 1777479091 | 11.67° C | 66% | 1024.8 hPa | 0 mm | - | - | - |
| 1777478791 | 11.67° C | 64% | 1024.9 hPa | 0 mm | - | - | - |
| 1777478491 | 11.11° C | 66% | 1025 hPa | 0 mm | - | - | - |
| 1777478191 | 11.11° C | 65% | 1025 hPa | 0 mm | - | - | - |
| 1777477891 | 11.11° C | 66% | 1024.9 hPa | 0 mm | - | - | - |
* Rain latest hour (hover to see other rain measurements)
** Current wind speed in m/s (hover to see current wind gust speed)